Weather Roundup
Issued by NWS

Home | Current Version | Previous Version | Text Only | Print | Product List | Glossary On
Versions: 1 2 3 4 5 6 7 8 9 10 11 12 13 14 15 16 17 18 19 20 21 22 23 24 25 26 27 28 29 30 31 32 33 34 35 36 37 38 39 40 41 42 43 44 45 46 47 48 49 50
873
NZUS93 KARX 300110
HRRWXR

CURRENT HOURLY OBSERVATIONS ACROSS
MUCH OF THE UPPER MISSISSIPPI VALLEY
NATIONAL WEATHER SERVICE LA CROSSE WI
800 PM CDT MON AUG 29 2016


...SOUTHEAST MINNESOTA...


CITY           SKY/WX    TMP DP  RH WIND       PRES   REMARKS
ROCHESTER      CLEAR     73  71  93 S7        30.17S
ROCHESTER/MAYO FAIR      77  72  82 S7        30.17S
WINONA         CLEAR     77  70  78 CALM      30.14S
AUSTIN         CLEAR     73  70  88 S5        30.18R
ALBERT LEA     CLEAR     75  66  73 S6        30.18R
DODGE CENTER   CLEAR     73  70  88 S6        30.17R
PRESTON        CLEAR     74  70  88 S5        30.19S
OWATONNA       CLEAR     75  70  83 S6        30.16R
FARIBAULT      CLEAR     75  70  83 S3        30.15R
$$

...ELSEWHERE IN MINNESOTA...


CITY           SKY/WX    TMP DP  RH WIND       PRES   REMARKS
MINNEAPOLIS    MOCLDY    82  67  60 VRB6      30.12R
INTNL FALLS    PTCLDY    69  61  75 NW6       30.10S
DULUTH         CLOUDY    76  69  79 CALM      30.11R
RED WING       CLEAR     75  72  88 CALM      30.12R
REDWOOD FALLS  PTCLDY    80  72  76 SW7       30.11F
MANKATO        NOT AVBL
WORTHINGTON    CLOUDY    76  70  82 S3        30.18R
FAIRMONT       CLEAR     73  70  90 S5        30.17R
$$

...SOUTHWEST WISCONSIN...


CITY           SKY/WX    TMP DP  RH WIND       PRES   REMARKS
LA CROSSE      CLEAR     78  72  81 S7        30.14S
PRAIRIE DU CHI CLOUDY    75  72  89 CALM      30.17R
BOSCOBEL       CLOUDY    76  74  93 N3        30.16S
LONE ROCK      CLOUDY    76  72  87 CALM      30.17S
PLATTEVILLE    CLOUDY    76  76  98 E3        30.17F
FORT MC COY    PTCLDY    73  70  88 S3        30.17S
CAMP DOUGLAS   MOCLDY    75  72  88 S5        30.16F
MAUSTON-NEW LI PTCLDY    73  71  95 CALM      30.16S
VIROQUA        FAIR      73  72  96 CALM      30.19S
WIS DELLS      PTCLDY    72  69  90 CALM      30.17F
$$

...ELSEWHERE IN WISCONSIN...


CITY           SKY/WX    TMP DP  RH WIND       PRES   REMARKS
MILWAUKEE      MOCLDY    76  70  82 S3        30.18S
MADISON        CLOUDY    78  70  76 SE7       30.17F
GREEN BAY      CLOUDY    74  73  97 CALM      30.16S
EAU CLAIRE     MOCLDY    77  72  84 S3        30.13R
BLACK RVR FLS  FAIR      74  74  99 CALM      30.15S
MEDFORD        CLOUDY    72  72 100 CALM      30.18R
WAUSAU         CLEAR     76  69  79 SW3       30.16S
WIS RAPIDS     PTCLDY    74  71  91 S3        30.18F
MARSHFIELD     PTCLDY    74  68  81 S5        30.17S
RICE LAKE      PTCLDY    73  69  88 S3        30.15F
$$

...NORTHEAST IOWA...


CITY           SKY/WX    TMP DP  RH WIND       PRES   REMARKS
WATERLOO       CLOUDY    70  68  93 CALM      30.17S
DUBUQUE        CLOUDY    72  69  90 CALM      30.18S
DECORAH        CLOUDY    73  73 100 CALM      30.18R
MASON CITY     PTCLDY    71  68  90 CALM      30.19F
CHARLES CITY   PTCLDY    73  73 100 CALM      30.18S
OELWEIN        CLOUDY    72  70  94 NW3       30.20S
$$

...ELSEWHERE IN IOWA...


CITY           SKY/WX    TMP DP  RH WIND       PRES   REMARKS
DES MOINES     CLOUDY    77  70  79 E6        30.14F
IOWA CITY      CLOUDY    74  70  87 CALM      30.17R
FORT DODGE     CLOUDY    72  66  83 SW6       30.18S
MARSHALLTOWN   CLOUDY    70  69  97 S5        30.16F
CEDAR RAPIDS   CLOUDY    73  71  93 CALM      30.16S
$$

...NORTHERN ILLINOIS...


CITY           SKY/WX    TMP DP  RH WIND       PRES   REMARKS
CHICAGO-OHARE  CLOUDY    75  72  90 NE5       30.17F
CHICAGO-MIDWAY CLOUDY    79  71  76 N5        30.17F
MOLINE         CLOUDY    77  72  84 SE5       30.15R
ROCKFORD       CLOUDY    72  69  90 N5        30.18F
PEORIA         CLOUDY    78  77  96 NE7       30.14S
$$

NOTE: "FAIR" INDICATES FEW OR NO CLOUDS BELOW 12,000 FEET WITH NO
SIGNIFICANT WEATHER AND/OR OBSTRUCTIONS TO VISIBILITY. WIND
SPEEDS ARE IN MILES-PER-HOUR.




USA.gov is the U.S. government's official web portal to all federal, state and local government web resources and services.